STARLINK-32402, 61708

Orbit data source: Space-Track

STARLINK-32402, 61708 is a payload satellite owned by SpaceX/Seattle (US) in LEO that was launched on Wed, 30 Oct 2024 UTC via an FALCON 9 launch vehicle from the Air Force Eastern Test Range (AFETR). Payload-class satellites include a variety of spacecraft equipped with specific instruments for various scientific and technological missions. These include communications satellites like Starlink; space stations such as the ISS; scientific satellites like the Hubble; Earth observation satellites from companies like Planet Labs, Umbra, and HawkEye 360; GPS; miniature CubeSats for education and research; and military/defense satellites.

Loading next visibility...
Identifier
61708, 2024-196B
Orbit
LEO
Last TLE update
18 hours ago
Origin
Manufacturer
SpaceX/Seattle
Mission
Operational Commercial Communications
Bus & Motor
STARLINK V2M, Unknown motor
Mass
730 kg wet, ~700 kg dry
Launch date (UTC)
2024-10-30 (9 months ago)
Launch vehicle
FALCON 9
Launch site
Air Force Eastern Test Range (AFETR)
Object type
Payload
Rocket body
Debris
Shape & HBR
Box + 2 Pan, 14.5 m
Radar Cross Section
36.964 m², Large (>1 m²)

Expand to show TLE details & history

TLE from 18 hours ago
0 STARLINK-32402
1 61708U 24196B   25198.73141508  .00000069  00000-0  14467-4 0  9999
2 61708  53.1597 112.6822 0001020  94.8291 265.2826 15.30195134 41189
Epoch: 2025-07-17T17:33Z
TLE epoch observation values (Epoch: 2025-07-17T17:33:14.262Z)
Latitude
-0.00006°
Longitude
-86.42029°
Altitude
476.187 km
Speed
7.629 km/s
True Right ascension
07h 30m 43s
True Declination
0° 00' 00"
Sunlit
Object was in daylight at epoch
Visualization orbit readout
Latitude
51.48238°
Longitude
-20.4221°
Altitude
480.729 km
Speed
7.632 km/s
Apparent Right ascension
11h 54m 06s
Apparent Declination
7° 53' 35"
Sunlit
Object is in daylight
Visualization observer readout
Local Sidereal Time
23:53:34
Azimuth
359.822° N
Elevation
-42.191°
Doppler factor
1
Orbital elements
Apogee altitude
476.185 km
Perigee altitude
474.787 km
Semi-major axis
6,853.623 km
Eccentricity
0.0001
Inclination
53.1597°
RAAN
112.6822°
Arg. of periapsis
94.8291°
True anomaly
265.27095°
Mean anomaly
265.2826°
Eccentric anomaly
265.27678°
Mean motion
3.82528 °/min
Orbital period
94.11 mins
BSTAR
0.000014467
Loading maneuver chart data...
Loading SW <> Apogee altitude chart data...
Loading historical data...
Loading historical data...
Loading historical data...
Loading historical data...
Loading historical data...
Loading historical data...
Loading historical data...
|